Notices

What's New in latest Release from April 7th, 2021:

- Updated Glossary, including Speed of Maximum Gust, and Total Hourly Precipitation

- Updated national and regional climate services offices contacts and prices information

- Addition of station inventory lists for 1981-2010, 1971-2000, and 1961-1990 Normals.

If you haven't already, please take our survey and provide feedback about our website: https://eccc.sondage-survey.ca/f/LanguageSelection.aspx?s=442ca660-fcf1-47c0-95a9-59707d6fd709

Hourly Data Report for September 09, 2019

QUALICUM BEACH AIRPORT
BRITISH COLUMBIA
Current Station Operator: ECCC - MSC

49°20'14.000" N
124°23'38.000" W
58.20 m
1026562
71766
VOQ

Download Data

Hourly Data (September 2019)
Hourly Data Report for September 9, 2019
TIME
LST
Temp Definition
°C
Dew Point Definition
°C
Rel Hum Definition
%
Precip. Amount Definition
mm

Wind Dir Definition
10's deg

Wind Spd Definition
km/h
Visibility Definition
km
Stn Press Definition
kPa
Hmdx Definition


Wind Chill Definition


Weather Definition


00:00 13.3 12.8 97 0.0   0   100.30     LegendNANA
01:00 12.4 11.9 97 0.0   0   100.30     LegendNANA
02:00 12.3 11.8 97 0.0 0 1   100.31     LegendNANA
03:00 13.1 12.6 97 0.0 27 1   100.32     LegendNANA
04:00 13.5 13.0 97 0.0 26 6   100.33     LegendNANA
05:00 13.1 12.5 96 0.0 20 3   100.31     LegendNANA
06:00 12.8 12.2 96 0.0   0   100.33     LegendNANA
07:00 13.8 13.1 95 0.0 26 3   100.35     LegendNANA
08:00 14.7 13.3 91 0.0 26 4   100.38     LegendNANA
09:00 17.5 14.6 83 0.0 30 4   100.39     LegendNANA
10:00 17.9 14.2 79 0.0 33 6   100.39     LegendNANA
11:00 18.7 13.0 70 0.0 31 6   100.35     LegendNANA
12:00 19.2 14.2 73 0.0 36 7   100.34     LegendNANA
13:00 19.9 13.7 68 0.0 5 6   100.33     LegendNANA
14:00 20.4 12.9 62 0.0 7 6   100.30     LegendNANA
15:00 19.6 13.4 68 0.0 9 8   100.32     LegendNANA
16:00 18.5 14.0 75 0.0 8 5   100.32     LegendNANA
17:00 17.5 14.7 84 0.0 8 5   100.34     LegendNANA
18:00 16.9 14.7 87 0.0 5 2   100.37     LegendNANA
19:00 16.2 14.6 90 0.0   0   100.43     LegendNANA
20:00 15.0 13.9 93 0.0   0   100.45     LegendNANA
21:00 14.4 13.4 94 0.0   0   100.47     LegendNANA
22:00 14.7 13.8 94 0.0   0   100.47     LegendNANA
23:00 14.1 13.1 94 0.0 16 1   100.49     LegendNANA

Notes on Data Quality.

Legend

  • E = Estimated
  • M = Missing
  • NA = Not Available*
  • [empty] = Indicates an unobserved value
Date modified: